Flag for Uruguay Weather past 2 weeks in Maldonado, Uruguay

Now
52 °F

Thunderstorms. Mostly cloudy.


Feels Like: 48 °F
Forecast: 53 / 65 °F
Wind: 12 mph from Southeast

Location: Capitan Corbeta

Current Time: Aug 2, 2015 at 3:29:54 AM

Latest Report: Aug 2, 2015 at 3:00 AM


Visibility: N/A

Pressure: 29.83 "Hg

Humidity: 94%

Dew point: 50 °F

Location of MaldonadoLocation

Historic Weather in Maldonado — Graph

°F

Maldonado temperature yesterday

Maximum temperature yesterday: 64 °F (at 3:00 PM)
Minimum temperature yesterday: 46 °F (at 7:00 AM)
Average temperature yesterday: 55 °F

Past Weeks' High & Low Weather Summary

 TemperatureHumidityPressure
High75 °F (Jul 28, 1:00 PM)100% (Jul 19, 2:00 AM)30.33 "Hg (Jul 19, 2:00 AM)
Low36 °F (Jul 22, 3:00 AM)39% (Jul 22, 1:00 PM)29.62 "Hg (Jul 31, 11:00 AM)
Average54 °F80%30.10 "Hg
* Reported Jul 18 3:00 AM — Aug 2 2:00 AM, Maldonado, Weather by CustomWeather, © 2015

Note: Actual official high and low records may vary slightly from our data, if they occured in-between our weather recording intervals... More about our weather records

Advertising

Maldonado weather history for previous 24 hours

 ConditionsComfort  
Time TempWeatherWind HumidityBarometerVisibility
2:00 AM
Sun, Aug 2
52 °FThunderstorms. Low clouds.14 mph94%29.80 "Hg4 mi
1:00 AM52 °FThunderstorms. Mostly cloudy.18 mph100%29.83 "Hg5 mi
12:00 AM52 °FThunderstorms. Mostly cloudy.23 mph100%29.86 "Hg4 mi
11:00 PM
Sat, Aug 1
52 °FThunderstorms. Mostly cloudy.15 mph100%29.89 "Hg4 mi
10:00 PM54 °FThunderstorms. Mostly cloudy.17 mph88%29.89 "Hg4 mi
9:00 PM54 °FMostly cloudy.14 mph88%29.92 "HgN/A
8:00 PM55 °FClear.14 mph88%29.92 "Hg10 mi
7:00 PM57 °FClear.12 mph77%29.92 "Hg10 mi
6:00 PM57 °FClear.9 mph72%29.92 "Hg10 mi
5:00 PM61 °FClear.9 mph63%29.92 "Hg10 mi
4:00 PM63 °FSunny.12 mph64%29.95 "Hg10 mi
3:00 PM64 °FSunny.6 mph60%29.95 "Hg10 mi
2:00 PM63 °FSunny.6 mph59%30.01 "Hg10 mi
1:00 PM59 °FSunny.9 mph68%30.04 "Hg10 mi
12:00 PM59 °FSunny.3 mph68%30.07 "Hg10 mi
11:00 AM55 °FPartly sunny.No wind77%30.09 "HgN/A
10:00 AM55 °FPartly sunny.7 mph82%30.07 "HgN/A
9:00 AM50 °FPartly sunny.9 mph94%30.09 "HgN/A
8:00 AM46 °FOvercast.9 mph87%30.09 "HgN/A
7:00 AM46 °FPartly sunny.9 mph87%30.09 "HgN/A
6:00 AM48 °FPassing clouds.8 mph87%30.07 "HgN/A
5:00 AM50 °FPassing clouds.8 mph82%30.04 "HgN/A
4:00 AM52 °FPassing clouds.8 mph82%30.04 "HgN/A
3:00 AM52 °FPassing clouds.12 mph82%30.04 "HgN/A
Weather by CustomWeather, © 2015

See weather overviewHow to use our weather pages